Regional Weather Roundup
Issued by NWS Sterling, VA

Home | Current Version | Previous Version | Text Only | Print | Product List | Glossary On
Versions: 1 2 3 4 5 6 7 8 9 10 11 12 13 14 15 16 17 18 19 20 21 22 23 24 25 26 27 28 29 30 31 32 33 34 35 36 37 38 39 40 41 42 43 44 45 46 47 48 49 50
000
ASUS41 KLWX 060110
RWRLWX

REGIONAL WEATHER ROUNDUP
NATIONAL WEATHER SERVICE BALTIMORE MD/WASHINGTON DC
900 PM EDT SUN JUL 05 2015

Note: "FAIR" indicates few or no clouds below 12,000 feet
with no significant weather and/or obstructions to visibility.
 TC=TEMPERATURE CELSIUS

 * =Non NWS site. Station does not report precipitation (e.g. rain,
    snow, etc.), thunder, or fog.

DCZ001-MDZ009-015-VAZ040>042-051-053>054-060200-
WASHINGTON METRO

CITY           SKY/WX    TMP DP  RH WIND       PRES   REMARKS
WASHINGTON NAT CLOUDY    80  71  74 SE7       30.12S
DULLES         CLOUDY    77  70  79 S3        30.11F
ANDREWS AFB    MOCLDY    74  73  97 SE6       30.12S
FT BELVOIR     MOCLDY    75  72  88 E2        30.12R
QUANTICO       LGT RAIN  79  69  71 SE9       30.12R
COLLEGE PARK*  MOCLDY    77  70  78 CALM      30.12S
LEESBURG*      MOCLDY    79  72  78 SE3       30.12F
MANASSAS*      CLEAR     75  73  94 CALM      30.12S
GAITHERSBURG*  CLOUDY    73  68  83 E3        30.16S

$$

MDZ006>007-011-014-060200-
BALTIMORE METRO

CITY           SKY/WX    TMP DP  RH WIND       PRES   REMARKS
BWI AIRPORT    CLOUDY    77  67  71 CALM      30.12R
MD SCIENCE CTR   N/A     79  66  64 MISG      30.12S
MARTIN STATE   MOCLDY    75  72  88 CALM      30.13S
ANNAPOLIS      MOCLDY    77  70  79 E3        30.11S
FORT MEADE*    CLOUDY    72  68  88 CALM      30.14S

$$

MDZ012-015-019>023-060200-
MARYLAND EASTERN SHORE

CITY           SKY/WX    TMP DP  RH WIND       PRES   REMARKS
OCEAN CITY     MOCLDY    74  70  87 SE3       30.14R
SALISBURY      MOCLDY    73  71  93 SE3       30.13S
BAY BRIDGE AP*   N/A     77  68  73 CALM      30.12F
CAMBRIDGE*     MOCLDY    77  72  83 CALM      30.12S

$$

MDZ017>025-060200-
SOUTHERN MARYLAND

CITY           SKY/WX    TMP DP  RH WIND       PRES   REMARKS
PATUXENT RIVER CLOUDY    77  71  82 S3        30.11S
ST INIGOES     NOT AVBL
LEONARDTOWN*   CLOUDY    75  70  83 CALM      30.13F

$$

MDZ003>005-060200-
NORTH CENTRAL MARYLAND

CITY           SKY/WX    TMP DP  RH WIND       PRES   REMARKS
FREDERICK*     CLOUDY    77  73  88 CALM      30.14R
HAGERSTOWN APT CLOUDY    78  67  68 SE5       30.13R
WESTMINSTER*   CLOUDY    75  70  83 SE3       30.14S

$$

MDZ501>502-060200-
WESTERN MARYLAND

CITY           SKY/WX    TMP DP  RH WIND       PRES   REMARKS
OAKLAND*       CLOUDY    64 N/A N/A SE9       30.19F HAZE
CUMBERLAND*    CLOUDY    73  70  88 NW3       30.15S

$$

VAZ025>031-060200-
SHENANDOAH VALLEY

CITY           SKY/WX    TMP DP  RH WIND       PRES   REMARKS
WINCHESTER*    CLOUDY    75  70  83 SE5       30.12F
FRONT ROYAL*   FAIR      73  68  83 CALM      30.11S
LURAY*         MOCLDY    77  70  78 CALM      30.12S
NEW MARKET*    CLOUDY    72  70  93 CALM      30.10F
STAUNTON*      CLOUDY    76  69  79 CALM      30.15S
WAYNESBORO*    CLOUDY    72  69  91 SE5       30.14F

$$

WVZ021-048>050-054>055-060200-
EASTERN WEST VIRGINIA PANHANDLE

CITY           SKY/WX    TMP DP  RH WIND       PRES   REMARKS
MARTINSBURG    CLOUDY    76  70  82 CALM      30.12S
PETERSBURG*    CLOUDY    73  68  82 CALM      30.12S

$$

VAZ036>039-050-060200-
CENTRAL FOOTHILLS

CITY           SKY/WX    TMP DP  RH WIND       PRES   REMARKS
CHARLOTTESVILL CLOUDY    77  69  76 E5        30.11F
CULPEPER*      CLOUDY    73  72  95 CALM      30.12R THUNDER
ORANGE*        CLOUDY    77  73  88 CALM      30.12F
GORDONSVILLE*  CLOUDY    73  73 100 CALM      30.10F
WARRENTON*     FAIR      76  74  95 E3        30.12R

$$

VAZ055>057-060200-
NORTH AND CENTRAL PIEDMONT

CITY           SKY/WX    TMP DP  RH WIND       PRES   REMARKS
FREDERICKSBRG* LGT RAIN  78  76  92 E3        30.10S
STAFFORD*      LGT RAIN  76  69  79 E6        30.15S

$$

NCZ024-NYZ072-PAZ021-071-VAZ022-071-060200-
OTHER REGIONAL OBSERVATIONS

CITY           SKY/WX    TMP DP  RH WIND       PRES   REMARKS
NEW YORK CITY  PTCLDY    76  61  59 CALM      30.14R
PHILADELPHIA   MOCLDY    79  66  64 S8        30.13R
PITTSBURGH     CLOUDY    77  59  53 NE6       30.09F
ROANOKE        LGT RAIN  70  69  97 SE14      30.13R
RICHMOND       LGT RAIN  74  71  91 SE6       30.11F
RALEIGH        TSTM      70  66  88 SW29G40   30.16R FOG

$$

ANZ530>537-060200-
MARINE OBSERVATIONS

STATION/POSITION TIME  TEMP    WIND        PRES
                       AIR SEA DIR/SP/G
                 (UTC) (F)     (DEG/KT/KT) (MB)
THOMAS PT LIGHT  NOT AVBL
BALT KEY BRIDGE  0000   78     100/  6/  7 1019.7R
COVE POINT       0000   78     190/  6/  7 1020.4R
LEWISETTA        0000   78 81  170/  6/  7 1019.7R
SOLOMONS ISLAND  0000      82                N/A
PINEY POINT      0000          180/ 10/ 12   N/A

$$




USA.gov is the U.S. government's official web portal to all federal, state and local government web resources and services.